• Processing (Info)

  • MPEC 2020-B19 : 2020 BP

    The following Minor Planet Electronic Circular may be linked-to from your own Web pages, but must not otherwise be redistributed electronically.

    A form allowing access to any MPEC is at the bottom of this page.


    Read MPEC 2020-B18 Read MPEC 2020-B20


    M.P.E.C. 2020-B19                              Issued 2020 January 19, 14:12 UT
    
         The Minor Planet Electronic Circulars contain information on unusual
             minor planets and routine data on comets.  They are published
        on behalf of Division F of the International Astronomical Union by the
              Minor Planet Center, Smithsonian Astrophysical Observatory,
                              Cambridge, MA 02138, U.S.A.
    
                 Prepared using the Tamkin Foundation Computer Network
    
                                  MPC@CFA.HARVARD.EDU
                URL https://www.minorplanetcenter.net/    ISSN 1523-6714
    
                                     2020 BP                                 
    
    
    Observations:
         K20B00P* C2020 01 18.31003 08 35 59.41 +20 36 46.8          18.8 GVEB019703
         K20B00P  C2020 01 18.31567 08 36 04.88 +20 36 11.0          18.7 GVEB019703
         K20B00P  C2020 01 18.32132 08 36 10.31 +20 35 35.1          18.8 GVEB019703
         K20B00P  C2020 01 18.32697 08 36 15.75 +20 34 58.9          18.8 GVEB019703
         K20B00P KC2020 01 18.38311 08 37 09.08 +20 28 53.5                oEB019711
         K20B00P KC2020 01 18.38550 08 37 11.45 +20 28 36.9                oEB019711
         K20B00P KC2020 01 18.38789 08 37 13.87 +20 28 20.4                oEB019711
         K20B00P  C2020 01 18.40957 08 37 37.60 +20 25 45.5          18.4 GVEB019I52
         K20B00P  C2020 01 18.40987 08 37 37.93 +20 25 43.5          18.6 GVEB019I52
         K20B00P  C2020 01 18.41017 08 37 38.24 +20 25 41.5          18.1 GVEB019I52
         K20B00P  C2020 01 18.41047 08 37 38.54 +20 25 39.3          18.6 GVEB019I52
         K20B00P KC2020 01 18.84843 08 47 08.34 +19 26 46.7          17.5 GVEB019587
         K20B00P KC2020 01 18.84892 08 47 08.99 +19 26 42.5          17.7 GVEB019587
         K20B00P KC2020 01 18.85105 08 47 11.97 +19 26 23.6          17.9 GVEB019587
         K20B00P KC2020 01 18.87364208 47 44.14 +19 23 08.9          18.4 GVEB019C95
         K20B00P KC2020 01 18.87429 08 47 44.15 +19 22 58.1                VEB019204
         K20B00P KC2020 01 18.87913 08 47 50.87 +19 22 14.8                VEB019204
         K20B00P KC2020 01 18.88402408 47 58.58 +19 21 36.5          18.3 GVEB019C95
         K20B00P KC2020 01 18.88440 08 47 58.21 +19 21 27.2          18.4 GVEB019204
         K20B00P KC2020 01 18.89683508 48 15.42 +19 18 55.8          18.7 GVEB019Z99
         K20B00P KC2020 01 18.89963808 48 19.40 +19 18 29.7          18.5 GVEB019Z99
         K20B00P KC2020 01 18.90270908 48 23.72 +19 18 01.8          18.6 GVEB019Z99
         K20B00P KC2020 01 18.90313 08 48 23.54 +19 19 13.6          18.9 GVEB019K96
         K20B00P KC2020 01 18.90655 08 48 28.26 +19 18 42.3          18.7 GVEB019K96
         K20B00P KC2020 01 18.91227 08 48 36.22 +19 17 49.4          18.4 GVEB019K96
         K20B00P KC2020 01 18.93876 08 49 15.02 +19 13 10.7          18.3 VqEB019C77
         K20B00P KC2020 01 18.94118 08 49 18.47 +19 12 48.1          18.2 VqEB019C77
         K20B00P KC2020 01 18.94362 08 49 21.98 +19 12 25.1          18.2 VqEB019C77
         K20B00P KC2020 01 18.96113 08 49 46.70 +19 09 23.7          18.0 RVEB019K30
         K20B00P KC2020 01 18.97105 08 50 00.98 +19 07 46.3          17.8 RVEB019K30
         K20B00P KC2020 01 18.98166 08 50 16.33 +19 06 02.8          17.7 RVEB019K30
         K20B00P KC2020 01 18.98275408 50 19.54 +19 05 28.0          18.3 GVEB019J95
         K20B00P KC2020 01 18.98426908 50 21.74 +19 05 12.8          18.0 GVEB019J95
         K20B00P KC2020 01 18.98582008 50 23.98 +19 04 58.0          18.6 GVEB019J95
         K20B00P KC2020 01 18.98745908 50 26.42 +19 04 41.4          18.1 GVEB019J95
         K20B00P KC2020 01 18.99100 08 50 29.02 +19 04 45.2                VEB019104
         K20B00P KC2020 01 18.99398 08 50 33.34 +19 04 15.1                VEB019104
         K20B00P KC2020 01 18.99695 08 50 37.66 +19 03 45.4          17.8 GVEB019104
         K20B00P KC2020 01 19.01745 08 51 08.27 +19 00 07.7          18.2 GVEB019K38
         K20B00P KC2020 01 19.02660 08 51 21.78 +18 58 33.5          18.4 GVEB019K38
         K20B00P KC2020 01 19.04326 08 51 46.70 +18 55 39.1          18.4 GVEB019K38
         K20B00P KC2020 01 19.05032 08 51 57.25 +18 54 26.1          18.1 GVEB019203
         K20B00P KC2020 01 19.05977 08 52 11.54 +18 52 45.2          18.0 GVEB019203
         K20B00P KC2020 01 19.06426 08 52 18.49 +18 51 55.7          18.3 GVEB019K38
         K20B00P KC2020 01 19.06816 08 52 24.36 +18 51 15.1          18.0 GVEB019203
         K20B00P KC2020 01 19.07345 08 52 32.55 +18 50 16.2          18.2 GVEB019K38
         K20B00P  C2020 01 19.20018 08 56 29.44 +18 27 12.5          18.1 GVEB019I52
         K20B00P  C2020 01 19.20031 08 56 29.65 +18 27 11.2          18.0 GVEB019I52
         K20B00P  C2020 01 19.20044 08 56 29.86 +18 27 09.8          18.1 GVEB019I52
         K20B00P  C2020 01 19.20057 08 56 30.10 +18 27 08.4          18.0 GVEB019I52
         K20B00P KC2020 01 19.21611 08 56 51.85 +18 23 51.0          18.2 RqEB019734
         K20B00P KC2020 01 19.21711 08 56 53.60 +18 23 39.1          17.9 RqEB019734
         K20B00P KC2020 01 19.21910 08 56 56.95 +18 23 16.4          18.1 RqEB019734
         K20B00P KC2020 01 19.22009 08 56 58.65 +18 23 04.4          18.1 RqEB019734
         K20B00P KC2020 01 19.30486 08 59 28.64 +18 06 35.8                oEB019711
         K20B00P KC2020 01 19.30714 08 59 32.65 +18 06 06.7                oEB019711
         K20B00P KC2020 01 19.30940 08 59 36.68 +18 05 37.8                oEB019711
    
    Observer details:
    104 San Marcello Pistoiese.  Observers P. Bacci, M. Maestripieri.  Measurers P. 
       Bacci, L. Tesi, G. Fagioli.  0.60-m reflector + CCD.
    203 GiaGa Observatory.  Observers S. Foglia, G. Galli.  Measurer G. Galli.  
        0.36-m f/5.76 Schmidt-Cassegrain + CCD.
    204 Schiaparelli Observatory.  Observer L. Buzzi.  0.84-m f/3.5 reflector + CCD.
    587 Sormano.  Observers M. Calcagno, A. Fumagalli, A. Gulic, P. Sicoli, A. 
       Testa.  Measurer P. Sicoli.  0.5-m f/6.8 reflector + CCD.
    703 Catalina Sky Survey.  Observer K. W. Wierzchos.  Measurers E. J. 
       Christensen, G. A. Farneth, D. C. Fuls, A. R. Gibbs, A. D. Grauer, H. 
       Groeller, R. A. Kowalski, S. M. Larson, G. J. Leonard, T. A. Pruyne, D. 
       Rankin, R. L. Seaman, F. C. Shelly, K. W. Wierzchos.  0.68-m Schmidt + 10K 
       CCD.
    711 McDonald Observatory, Fort Davis.  Observer J. G. Ries.  2.1-m reflector + 
       CCD + focal reducer.
    734 Farpoint Observatory, Eskridge.  Observers G. Hug, D. Cromer, D. Goodin.  
        Measurer D. Cromer.  0.7-m reflector + CCD.
    C77 Bernezzo Observatory.  Observer A. Mantero.  0.25-m f/4.0 reflector + CCD.
    C95 SATINO Remote Observatory, Haute Provence.  Observer J. Jahn.  0.60-m f/3.2 
       Newtonian reflector + CCD.
    I52 Steward Observatory, Mt. Lemmon Station.  Observers H. Groeller, D. Rankin. 
        Measurers E. J. Christensen, G. A. Farneth, D. C. Fuls, A. R. Gibbs, A. D. 
       Grauer, H. Groeller, R. A. Kowalski, S. M. Larson, G. J. Leonard, T. A. 
       Pruyne, D. Rankin, R. L. Seaman, F. C. Shelly, K. W. Wierzchos.  1.0-m 
       reflector + CCD.
    J95 Great Shefford.  Observer P. Birtwhistle.  0.41-m f/6.3 Schmidt-Cassegrain 
       + CCD.
    K30 Luscherz.  Observer L. Grimm.  0.25-m f/4.8 Newtonian reflector + CCD.
    K38 M57 Observatory, Saltrio.  Observer G. Baj.  0.3-m f/5.5 Ritchey-Chretien + 
       CCD.
    K96 Savelli Observatory.  Observers A. Brosio, A. De Pieri.  0.5-m f/8.0 
       Ritchey-Chretien + CCD.
    Z99 Clixby Observatory, Cleethorpes.  Observer A. Mickleburgh.  0.36-m f/8 
       Schmidt-Cassegrain + CCD.
    
    Orbital elements:
    2020 BP                                                  Earth MOID = 0.0014 AU
    Epoch 2020 May 31.0 TT = JDT 2459000.5                  Veres
    M  29.00202              (2000.0)            P               Q
    n   0.32903005     Peri.  249.54738     -0.98747450     +0.15429571
    a   2.0780006      Node   299.31594     -0.12697039     -0.90115829
    e   0.6397606      Incl.    2.16693     -0.09366229     -0.40510069
    P   3.00           H   25.5           G   0.15           U   7
    Residuals in seconds of arc
    200118 703  0.5-  0.1+    200118 Z99  0.7+  0.4+    200119 K38  0.6+  0.1-
    200118 703  0.1+  0.1-    200118 Z99  0.9+  0.1-    200119 K38  0.0   0.1+
    200118 703  0.1-  0.1-    200118 Z99  0.4+  0.2+    200119 K38  0.5+  0.2-
    200118 703  0.3-  0.2-    200118 K96  0.1-  0.2-    200119 203  0.1-  0.1-
    200118 711  0.4+  0.4+    200118 K96  0.3-  0.0     200119 203  0.3-  0.3-
    200118 711  0.1+  0.2+    200118 K96  0.1+  0.1-    200119 K38  0.7+  0.1+
    200118 711  0.4+  0.2+    200118 C77  0.1-  0.2-    200119 203  0.1+  0.1-
    200118 I52  0.3-  0.2-    200118 C77  0.2+  0.2+    200119 K38  0.6+  0.1-
    200118 I52  0.0   0.1-    200118 C77  0.8+  0.4+    200119 I52  0.1+  0.0
    200118 I52  0.1+  0.0     200118 K30  0.1+  0.0     200119 I52  0.1-  0.2+
    200118 I52  0.0   0.1-    200118 K30  0.3+  0.8-    200119 I52  0.2-  0.2+
    200118 587  0.2+  0.0     200118 K30  0.4+  0.2+    200119 I52  0.0   0.3+
    200118 587  0.1-  0.1+    200118 J95  0.1-  0.0     200119 734  0.1-  0.1-
    200118 587  0.5+  0.2-    200118 J95  0.3-  0.2-    200119 734  0.7+  0.4-
    200118 C95  0.1-  0.2-    200118 J95  0.7-  0.3+    200119 734  0.3+  0.1+
    200118 204  0.0   0.1+    200118 J95  0.2-  0.1-    200119 734  0.6+  0.3-
    200118 204  0.0   0.1+    200118 104  0.1-  0.2+    200119 711  0.1-  0.3+
    200118 C95  0.2-  0.2+    200118 104  0.2-  0.1-    200119 711  0.4-  0.2+
    200118 204  0.2+  0.1-    200118 104  0.2-  0.1+    200119 711  0.0   0.0
    
    Ephemeris:
    2020 BP                  a,e,i = 2.08, 0.64, 2                   q = 0.7486
    Date    TT    R. A. (2000) Decl.     Delta      r    Elong.  Phase     V
    2019 12 20    07 33 13.4 +25 22 02   0.3432  1.3054   156.3    17.7    24.7
    ...
    2020 01 04    07 42 55.4 +25 05 38   0.1760  1.1564   169.0     9.4    22.7
    ...
    2020 01 12    07 54 14.0 +24 20 49   0.09503 1.0779   174.0     5.5    21.0
    ...
    2020 01 18    08 30 53.2 +21 07 47   0.03712 1.0205   171.9     7.8    18.9
    2020 01 19    08 50 39.7 +19 05 35   0.02787 1.0111   168.2    11.5    18.5
    2020 01 20    09 27 50.1 +14 45 49   0.01906 1.0018   159.5    20.1    17.9
    ...
    2020 01 26    18 34 47.1 -29 08 21   0.04236 0.9473    28.2   150.6    27.1
    ...
    2020 02 03    19 13 39.7 -27 10 57   0.1201  0.8805    27.3   149.1    28.9
    ...
    2020 02 18    19 36 02.7 -25 42 21   0.2782  0.7845    37.1   130.5    28.0
    
    A. U. Tomatic                (C) Copyright 2020 MPC           M.P.E.C. 2020-B19
    


    Read MPEC 2020-B18 Read MPEC 2020-B20


    MPEC number:

    Enter an MPEC number in one of the following forms:

    • 1997-B01 (the full form)
    • J97B01 (the packed version of the full form)
    • B01 (the abbreviated form)